Location: Hannover
(52.3723°N, 9.7339°E)
Time: 04:04:23
(UTC+01:00)

ISS - Visible Passes

Search period start: 22 February 2018 00:00
Search period end: 04 March 2018 00:00
Orbit: 403 x 407 km, 51.6° (Epoch: 22 February)

Date Brightness Start Highest point End Pass type
(mag) Time Alt. Az. Time Alt. Az. Time Alt. Az.
26 Feb -0.5 06:27:01 10° SSE 06:27:33 10° SE 06:28:04 10° SE visible
28 Feb -1.2 06:16:46 10° S 06:19:08 19° SE 06:21:30 10° E visible
01 Mar -0.9 05:25:42 10° SSE 05:27:05 12° SE 05:28:29 10° ESE visible
02 Mar -2.2 06:07:49 10° SW 06:10:46 30° SSE 06:13:42 10° E visible
03 Mar -1.7 05:16:55 15° S 05:18:37 21° SSE 05:21:11 10° E visible
